sat.trackr.live / text

‹ back to catalog

INTELSAT 36 (IS-36)

NORAD 41747 · 2016-053A

PAYLOAD ACTIVE UNKNOWN

§ Identity

Operator
Country
ITSO
Launch date
2016-08-24
Launch site
FRGUI
Launch vehicle
Mass (kg)
RCS (m²)
6.49

Purposes: comms

External: N2YO · Heavens-Above · Gunter

§ Orbital elements

Epoch: 2026-05-24T22:56:09.885408Z

Period
1,436.13 min
Inclination
0.0120°
Eccentricity
0.0001469
Mean motion
1.00269212 rev/d
Perigee alt
35,781.1 km
Apogee alt
35,793.5 km
Semi-major
42,165.5 km
B*
0.0000e+0
RAAN
348.4799°
Arg perigee
337.3045°
Mean anomaly
329.3146°
Rev number
3,572

§ Raw data

INTELSAT 36 (IS-36)1 41747U 16053A   26144.95566997 -.00000027  00000+0  00000+0 0  99992 41747   0.0120 348.4799 0001469 337.3045 329.3146  1.00269212 35725

JSON: /api/v1/satellites/41747 · /tle

For live sub-satellite position, see the globe view (requires WebGL).

§ Visibility from observer

Set your observer location to see the next 7 days of passes ≥ 10°. The values pass through the URL so the page stays shareable.

No JS? Fill the form by hand. The geolocation button needs JavaScript.